Weather History for Grosse Ile, MI

Change the Weather History Date:

Sunday, January 20, 2013

  Actual Average (KDTW) Record (KDTW)
Temperature  
Mean Temperature 30 °F 25 °F  
Max Temperature 42 °F 32 °F 64 °F (1906)
Min Temperature 19 °F 19 °F -14 °F (1985)
Degree Days  
Heating Degree Days 34 40  
Month to date heating degree days 790  
Since 1 July heating degree days 3087  
Cooling Degree Days 0 0  
Month to date cooling degree days 0  
Year to date cooling degree days 0  
Moisture  
Dew Point 9 °F    
Average Humidity 50    
Maximum Humidity 70    
Minimum Humidity 36    
Precipitation  
Precipitation 0.00 in 0.06 in 0.92 in (1959)
Month to date precipitation 1.31  
Year to date precipitation 1.31  
Snow  
Snow 0.00 in 0.40 in 2.70 in (1950)
Month to date snowfall 8.2  
Since 1 July snowfall 19.4  
Snow Depth -    
Sea Level Pressure  
Sea Level Pressure 30.00 in    
Wind  
Wind Speed 18 mph (WNW)    
Max Wind Speed 33 mph    
Max Gust Speed 46 mph    
Visibility 10 miles    
Events      
T = Trace of Precipitation, MM = Missing Value Source: NWS Daily Summary

Daily Weather History Graph

Daily Weather History Graph

Search for Another Location

Airport:

Trip Planner

Search our weather history database for the weather conditions in past years. The results will help you decide how hot, cold, wet, or windy it might be!

Date:

Astronomy

Jan. 20, 2013 Rise Set
Actual Time 7:55 AM EST 5:32 PM EST
Civil Twilight 7:25 AM EST 6:02 PM EST
Nautical Twilight 6:50 AM EST 6:37 PM EST
Astronomical Twilight 6:17 AM EST 7:10 PM EST
Moon 12:33 PM EST (1/20) 2:26 AM EST (1/20)
Length of Visible Light 10h 37m
Length of Day
9h 36m
Waxing Gibbous, 66% of the Moon is Illuminated
Jan 20
Waxing Gibbous
Jan 26
Full
Feb 3
Last Quarter
Feb 10
New
Feb 17
First Quarter

Hourly Weather History & Observations

Time (EST) Temp. Windchill Dew Point Humidity Pressure Visibility Wind Dir Wind Speed Gust Speed Precip Events Conditions
12:14 AM 42.8 °F 34.0 °F 33.8 °F 70% 29.58 in 10.0 mi SW 20.7 mph 26.5 mph N/A   Clear
12:34 AM 42.8 °F 35.1 °F 33.8 °F 70% 29.57 in 10.0 mi WSW 16.1 mph 23.0 mph N/A   Clear
12:54 AM 42.8 °F 34.5 °F 33.8 °F 70% 29.57 in 10.0 mi SW 18.4 mph 27.6 mph N/A   Scattered Clouds
1:14 AM 42.8 °F 34.8 °F 33.8 °F 70% 29.57 in 10.0 mi WSW 17.3 mph 23.0 mph N/A   Scattered Clouds
1:35 AM 42.8 °F 34.8 °F 33.8 °F 70% 29.57 in 10.0 mi WSW 17.3 mph 27.6 mph N/A   Mostly Cloudy
1:54 AM 42.8 °F 34.0 °F 30.2 °F 61% 29.58 in 10.0 mi WSW 20.7 mph 32.2 mph N/A   Overcast
2:14 AM 42.8 °F 34.0 °F 23.0 °F 46% 29.59 in 10.0 mi West 20.7 mph 28.8 mph N/A   Overcast
2:34 AM 42.8 °F 33.5 °F 21.2 °F 42% 29.61 in 10.0 mi West 23.0 mph 35.7 mph N/A   Overcast
2:54 AM 42.8 °F 33.8 °F 21.2 °F 42% 29.63 in 10.0 mi WNW 21.9 mph 40.3 mph N/A   Overcast
3:14 AM 39.2 °F 29.6 °F 15.8 °F 39% 29.66 in 10.0 mi West 19.6 mph 46.0 mph N/A   Mostly Cloudy
3:34 AM 35.6 °F 23.0 °F 17.6 °F 48% 29.70 in 10.0 mi WNW 27.6 mph 41.4 mph N/A   Scattered Clouds
3:54 AM 32.0 °F 17.0 °F 17.6 °F 55% 29.73 in 10.0 mi WNW 33.4 mph 43.7 mph N/A   Clear
4:14 AM 30.2 °F 15.4 °F 15.8 °F 55% 29.76 in 10.0 mi West 28.8 mph 41.4 mph N/A   Scattered Clouds
4:34 AM 28.4 °F 14.1 °F 12.2 °F 51% 29.79 in 10.0 mi WNW 24.2 mph 42.6 mph N/A   Mostly Cloudy
4:54 AM 26.6 °F 10.8 °F 10.4 °F 51% 29.81 in 10.0 mi WNW 27.6 mph 42.6 mph N/A   Mostly Cloudy
5:14 AM 26.6 °F 11.1 °F 8.6 °F 47% 29.83 in 10.0 mi WNW 26.5 mph 38.0 mph N/A   Mostly Cloudy
5:34 AM 24.8 °F 9.0 °F 10.4 °F 54% 29.84 in 10.0 mi WNW 25.3 mph 34.5 mph N/A   Overcast
5:54 AM 24.8 °F 9.6 °F 8.6 °F 50% 29.86 in 10.0 mi WNW 23.0 mph 35.7 mph N/A   Overcast
6:14 AM 23.0 °F 7.2 °F 8.6 °F 54% 29.88 in 10.0 mi West 23.0 mph 33.4 mph N/A   Overcast
6:34 AM 21.2 °F 3.9 °F 6.8 °F 54% 29.91 in 10.0 mi West 26.5 mph 39.1 mph N/A   Mostly Cloudy
6:54 AM 21.2 °F 4.9 °F 6.8 °F 54% 29.93 in 10.0 mi West 23.0 mph 34.5 mph N/A   Mostly Cloudy
7:14 AM 21.2 °F 6.0 °F 6.8 °F 54% 29.95 in 10.0 mi West 19.6 mph 33.4 mph N/A   Overcast
7:34 AM 21.2 °F 6.8 °F 6.8 °F 54% 29.97 in 10.0 mi WNW 17.3 mph 26.5 mph N/A   Overcast
7:54 AM 21.2 °F 7.3 °F 6.8 °F 54% 29.98 in 10.0 mi WNW 16.1 mph 27.6 mph N/A   Overcast
8:14 AM 19.4 °F 2.5 °F 3.2 °F 49% 30.00 in 10.0 mi West 23.0 mph 33.4 mph N/A   Mostly Cloudy
8:34 AM 21.2 °F 6.4 °F 3.2 °F 46% 30.03 in 10.0 mi WNW 18.4 mph 27.6 mph N/A   Mostly Cloudy
8:54 AM 19.4 °F 3.2 °F 6.8 °F 58% 30.05 in 10.0 mi WNW 20.7 mph 33.4 mph N/A   Overcast
9:14 AM 19.4 °F 3.6 °F 3.2 °F 49% 30.06 in 10.0 mi West 19.6 mph 26.5 mph N/A   Mostly Cloudy
9:34 AM 19.4 °F 4.1 °F 3.2 °F 49% 30.07 in 10.0 mi WNW 18.4 mph 31.1 mph N/A   Mostly Cloudy
9:54 AM 19.4 °F 4.5 °F 1.4 °F 46% 30.08 in 10.0 mi WNW 17.3 mph 32.2 mph N/A   Clear
10:15 AM 19.4 °F 3.2 °F 1.4 °F 46% 30.09 in 10.0 mi WNW 20.7 mph 27.6 mph N/A   Clear
10:34 AM 21.2 °F 7.3 °F 1.4 °F 42% 30.10 in 10.0 mi WNW 16.1 mph 27.6 mph N/A   Clear
10:54 AM 21.2 °F 6.4 °F 1.4 °F 42% 30.11 in 10.0 mi WNW 18.4 mph 25.3 mph N/A   Clear
11:15 AM 23.0 °F 10.1 °F 1.4 °F 39% 30.12 in 10.0 mi West 15.0 mph 20.7 mph N/A   Clear
11:34 AM 23.0 °F 10.1 °F 1.4 °F 39% 30.12 in 10.0 mi WNW 15.0 mph 20.7 mph N/A   Clear
11:54 AM 24.8 °F 14.0 °F 1.4 °F 36% 30.11 in 10.0 mi WNW 11.5 mph 19.6 mph N/A   Clear
12:14 PM 24.8 °F 14.0 °F 1.4 °F 36% 30.13 in 10.0 mi West 11.5 mph - N/A   Clear
12:34 PM 24.8 °F 14.0 °F 3.2 °F 40% 30.13 in 10.0 mi West 11.5 mph 21.9 mph N/A   Scattered Clouds
12:54 PM 24.8 °F 16.1 °F 3.2 °F 40% 30.12 in 10.0 mi West 8.1 mph - N/A   Scattered Clouds
1:14 PM 24.8 °F 13.4 °F 3.2 °F 40% 30.13 in 10.0 mi West 12.7 mph 19.6 mph N/A   Scattered Clouds
1:34 PM 24.8 °F 14.6 °F 3.2 °F 40% 30.11 in 10.0 mi West 10.4 mph - N/A   Mostly Cloudy
1:54 PM 26.6 °F 16.8 °F 3.2 °F 37% 30.09 in 10.0 mi WNW 10.4 mph 16.1 mph N/A   Scattered Clouds
2:14 PM 24.8 °F 14.0 °F 3.2 °F 40% 30.09 in 10.0 mi WNW 11.5 mph - N/A   Scattered Clouds
2:34 PM 24.8 °F 12.4 °F 3.2 °F 40% 30.11 in 10.0 mi West 15.0 mph 23.0 mph N/A   Scattered Clouds
2:54 PM 24.8 °F 12.4 °F 5.0 °F 43% 30.12 in 10.0 mi WNW 15.0 mph 24.2 mph N/A   Scattered Clouds
3:14 PM 24.8 °F 13.4 °F 6.8 °F 46% 30.12 in 10.0 mi West 12.7 mph 21.9 mph N/A   Mostly Cloudy
3:34 PM 24.8 °F 12.9 °F 6.8 °F 46% 30.12 in 10.0 mi WNW 13.8 mph - N/A   Overcast
3:55 PM 24.8 °F 13.4 °F 6.8 °F 46% 30.13 in 10.0 mi WNW 12.7 mph 20.7 mph N/A   Mostly Cloudy
4:14 PM 23.0 °F 10.6 °F 5.0 °F 46% 30.13 in 10.0 mi West 13.8 mph 18.4 mph N/A   Mostly Cloudy
4:34 PM 23.0 °F 11.1 °F 5.0 °F 46% 30.14 in 10.0 mi West 12.7 mph 17.3 mph N/A   Mostly Cloudy
4:55 PM 21.2 °F 7.8 °F 5.0 °F 50% 30.13 in 10.0 mi West 15.0 mph 18.4 mph N/A   Overcast
5:14 PM 21.2 °F 8.9 °F 5.0 °F 50% 30.14 in 10.0 mi West 12.7 mph - N/A   Overcast
5:34 PM 21.2 °F 7.8 °F 6.8 °F 54% 30.15 in 10.0 mi WNW 15.0 mph 18.4 mph N/A   Overcast
5:54 PM 21.2 °F 10.1 °F 6.8 °F 54% 30.15 in 10.0 mi WNW 10.4 mph 16.1 mph N/A   Overcast
6:14 PM 21.2 °F 13.6 °F 6.8 °F 54% 30.15 in 10.0 mi West 5.8 mph - N/A   Overcast
6:34 PM 21.2 °F 8.9 °F 5.0 °F 50% 30.15 in 10.0 mi WNW 12.7 mph 18.4 mph N/A   Mostly Cloudy
6:54 PM 21.2 °F 9.5 °F 5.0 °F 50% 30.16 in 10.0 mi West 11.5 mph 16.1 mph N/A   Mostly Cloudy
7:14 PM 21.2 °F 10.9 °F 6.8 °F 54% 30.16 in 10.0 mi West 9.2 mph - N/A   Overcast
7:34 PM 21.2 °F 7.8 °F 6.8 °F 54% 30.16 in 10.0 mi West 15.0 mph 19.6 mph N/A   Overcast
7:54 PM 19.4 °F 7.2 °F 5.0 °F 54% 30.16 in 10.0 mi West 11.5 mph - N/A   Overcast
8:14 PM 19.4 °F 7.9 °F 5.0 °F 54% 30.16 in 10.0 mi WNW 10.4 mph - N/A   Overcast
8:34 PM 19.4 °F 7.9 °F 5.0 °F 54% 30.16 in 10.0 mi WNW 10.4 mph - N/A   Overcast
8:54 PM 19.4 °F 9.5 °F 5.0 °F 54% 30.16 in 10.0 mi WNW 8.1 mph - N/A   Overcast
9:14 PM 19.4 °F 9.5 °F 5.0 °F 54% 30.15 in 10.0 mi WNW 8.1 mph - N/A   Overcast
9:34 PM 19.4 °F 7.2 °F 5.0 °F 54% 30.16 in 10.0 mi WNW 11.5 mph - N/A   Overcast
9:54 PM 19.4 °F 6.0 °F 5.0 °F 54% 30.16 in 10.0 mi West 13.8 mph 18.4 mph N/A   Overcast
10:15 PM 19.4 °F 7.9 °F 3.2 °F 49% 30.16 in 10.0 mi WNW 10.4 mph 18.4 mph N/A   Overcast
10:34 PM 19.4 °F 7.9 °F 3.2 °F 49% 30.15 in 10.0 mi WNW 10.4 mph 18.4 mph N/A   Overcast
10:54 PM 19.4 °F 8.6 °F 3.2 °F 49% 30.15 in 10.0 mi WNW 9.2 mph - N/A   Overcast
11:15 PM 19.4 °F 10.4 °F 3.2 °F 49% 30.15 in 10.0 mi NW 6.9 mph 10.4 mph N/A   Overcast
11:34 PM 19.4 °F 10.4 °F 5.0 °F 54% 30.14 in 10.0 mi NW 6.9 mph - N/A   Overcast
11:54 PM 19.4 °F 6.6 °F 5.0 °F 54% 30.14 in 10.0 mi NW 12.7 mph - N/A   Overcast